STARLINK-35153 (65625 NORAD) Tracking and Keplerian Element Data

This shows tracking and keplerian element data for the satellite.

Feedback or suggestion? Click here.




ElementValue
Catalog65625
NameSTARLINK-35153
Epoch Orbit1548
Epoch Day354.18746205
Epoch Year2025
RAAN316.0286
Inclination53.1591
Eccentricity8.56E-05
Argument of Perigee85.5008
Mean Anonmoly274.6091
Mean Motion15.3019088
Decay Rate0.00020761
L11 65625U 25210D 25354.18746205 .00020761 00000+0 71131-3 0 9997
L22 65625 53.1591 316.0286 0000856 85.5008 274.6091 15.30190880 15483



Live tracking and technical data element details for STARLINK-35153 (NORAD 65625). STARLINK-35153 can be tracked NOW for your location showing map with azimuth and elevation plus other details from your city location.







IsCatalogInMostPopularTable: catalog: 65625, numindb: 2
Update: records affected: 1



GetName: 65625 STARLINK-35153

Hit Count: updated at: Mon, 09 Feb 2026 09:19:39 GMT